Flag for USA

Past Weather in Green Bay, Wisconsin, USA — Yesterday and Last 2 Weeks

Now
85 °F

Sunny.


Feels Like: 88 °F
Forecast: 85 / 67 °F
Wind: 5 mph from North

Location: Austin Straubel International Airport

Current Time: Jul 4, 2020 at 11:34:05 am

Latest Report: Jul 4, 2020 at 10:53 am


Visibility: 10 mi

Pressure: 30.07 "Hg

Humidity: 57%

Dew Point: 68 °F

Location of Green BayLocation

Past Weather in Green Bay — Graph

°F

Green Bay Temperature Yesterday

Maximum temperature yesterday: 89 °F (at 1:53 pm)
Minimum temperature yesterday: 67 °F (at 4:53 am)
Average temperature yesterday: 79 °F

High & Low Weather Summary for the Past Weeks

 TemperatureHumidityPressure
High89 °F (Jul 3, 1:53 pm)96% (Jun 25, 5:53 am)30.09 "Hg (Jun 25, 5:53 am)
Low55 °F (Jun 24, 5:53 am)34% (Jun 19, 3:53 pm)29.70 "Hg (Jun 23, 7:53 am)
Average72 °F74%29.88 "Hg
* Reported Jun 19 9:53 am — Jul 4 9:53 am, Green Bay. Weather by CustomWeather, © 2020

Note: Actual official high and low records may vary slightly from our data, if they occured in-between our weather recording intervals... More about our weather records

Green Bay Weather History for the Previous 24 Hours

Scroll right to see more
 ConditionsComfort  
Time TempWeatherWind HumidityBarometerVisibility
9:53 am
Sat, Jul 4
84 °FSunny.6 mph59%30.06 "Hg10 mi
8:53 am80 °FSunny.3 mph69%30.06 "Hg10 mi
7:53 am78 °FSunny.3 mph71%30.06 "Hg10 mi
5:53 am68 °FFog.No wind93%30.07 "Hg4 mi
4:53 am68 °FFog.3 mph90%30.06 "Hg6 mi
3:53 am69 °FClear.No wind90%30.06 "Hg8 mi
2:53 am70 °FClear.5 mph87%30.06 "Hg10 mi
1:53 am71 °FClear.No wind87%30.05 "Hg10 mi
12:53 am71 °FClear.No wind90%30.04 "Hg9 mi
11:53 pm
Fri, Jul 3
72 °FClear.3 mph84%30.05 "Hg10 mi
10:53 pm73 °FClear.3 mph81%30.05 "Hg10 mi
9:53 pm76 °FClear.No wind80%30.04 "Hg10 mi
8:53 pm78 °FClear.5 mph69%30.03 "Hg10 mi
7:53 pm83 °FSunny.N/A59%30.03 "Hg10 mi
6:53 pm85 °FSunny.N/A59%30.03 "Hg10 mi
5:53 pm88 °FSunny.7 mph43%30.03 "Hg10 mi
4:53 pm89 °FSunny.10 mph35%30.03 "Hg10 mi
3:53 pm89 °FSunny.13 mph36%30.04 "Hg10 mi
2:53 pm89 °FSunny.13 mph39%30.05 "Hg10 mi
1:53 pm89 °FPassing clouds.8 mph48%30.06 "Hg10 mi
12:53 pm88 °FSunny.9 mph52%30.06 "Hg10 mi
11:53 am86 °FPassing clouds.6 mph59%30.06 "Hg10 mi
Weather by CustomWeather, © 2020

See weather overview